Deer Park, WA
on Sunday, December 2, 2012

Sunday
Previous Day Next Day
Daily Summary
 ActualAverageRecord
Temperature
Mean Temperature °F 28°F  
Max Temperature 46°F 34°F 46°F (2012)
Min Temperature 36°F 22°F 6°F (2005)
Degree Days
Heating Degree Days 24 37  
Month to date heating degree days 47 74  
Since 1 July heating degree days 1784 2077  
Cooling Degree Days 0 0  
Month to date cooling degree days 0 0  
Year to date cooling degree days 232 187  
Moisture
Dew Point 36°F   
Average Humidity 80    
Maximum Humidity 100    
Minimum Humidity 60    
Precipitation
Precipitation 0.42 in 0.09 in 1.08 in (1999)
Month to date precipitation 0.58 0.17  
Year to date precipitation 24.69 19.56  
Wind
Wind Speed 9 mph   
Max Wind Speed 20 mph   
Max Gust Speed 25 mph   
Visibility 9 miles   
Events Rain   

Key: T is trace of precipitation, MM is missing value
Source: NWS Daily Summary
Time(PST)TemperatureDew PointHumidity Pressure Visibility Wind DirectionWind SpeedGust SpeedPrecipitationEvents Conditions
12:02 AM 37.4°F 37.4°F 100% 29.54 in 10.0 miles NE 3.5 mph - 0.00 in Rain Light Rain
12:38 AM 37.4°F 37.4°F 100% 29.50 in 10.0 miles ENE 3.5 mph - 0.01 in Rain Light Rain
12:53 AM 37.9°F 37.0°F 97% 29.51 in 10.0 miles NE 4.6 mph - 0.01 in Rain Light Rain
1:53 AM 37.9°F 37.0°F 97% 29.45 in 10.0 miles ENE 8.1 mph - 0.01 in Rain Light Rain
2:19 AM 37.4°F 37.4°F 100% 29.41 in 10.0 miles ENE 5.8 mph - 0.00 in Rain Light Rain
2:38 AM 37.4°F 37.4°F 100% 29.39 in 10.0 miles NE 4.6 mph - 0.01 in Rain Light Rain
2:53 AM 37.9°F 37.9°F 100% 29.38 in 10.0 miles NE 4.6 mph - 0.02 in Rain Light Rain
3:53 AM 37.9°F 37.0°F 97% 29.34 in 8.0 miles NNE 4.6 mph - 0.06 in Rain Light Rain
4:53 AM 37.9°F 37.0°F 97% 29.31 in 6.0 miles NE 5.8 mph - 0.10 in Rain Rain
5:53 AM 37.9°F 37.0°F 97% 29.25 in 8.0 miles NE 9.2 mph - 0.08 in Rain Light Rain
6:53 AM 37.0°F 36.0°F 96% 29.22 in 7.0 miles NNE 4.6 mph - 0.05 in Rain Light Rain
7:20 AM 35.6°F 35.6°F 100% 29.19 in 6.0 miles Calm Calm - 0.03 in Rain Light Rain
7:53 AM 36.0°F 35.1°F 97% 29.23 in 7.0 miles North 3.5 mph - 0.06 in Rain Light Rain
8:15 AM 35.6°F 35.6°F 100% 29.20 in 4.0 miles North 8.1 mph - 0.01 in Rain Light Rain
8:53 AM 37.0°F 36.0°F 96% 29.25 in 4.0 miles Calm Calm - 0.02 in   Overcast
9:16 AM 37.4°F 35.6°F 93% 29.22 in 8.0 miles Calm Calm - 0.00 in   Overcast
9:50 AM 37.4°F 37.4°F 100% 29.26 in 10.0 miles Calm Calm - 0.00 in   Overcast
9:53 AM 37.0°F 37.0°F 100% 29.30 in 10.0 miles South 3.5 mph - 0.00 in   Overcast
10:09 AM 37.4°F 37.4°F 100% 29.27 in 10.0 miles SSE 3.5 mph - N/A   Overcast
10:53 AM 41.0°F 39.9°F 96% 29.33 in 4.0 miles SW 9.2 mph - N/A   Overcast
11:04 AM 42.8°F 39.2°F 87% 29.31 in 2.5 miles SW 10.4 mph - 0.01 in   Overcast
11:14 AM 42.8°F 39.2°F 87% 29.31 in 4.0 miles SW 16.1 mph 21.9 mph 0.01 in   Overcast
11:53 AM 42.1°F 39.9°F 92% 29.37 in 10.0 miles SW 11.5 mph 19.6 mph 0.01 in   Overcast
12:02 PM 42.8°F 39.2°F 87% 29.35 in 10.0 miles SW 13.8 mph - N/A   Overcast
12:53 PM 43.0°F 39.9°F 89% 29.42 in 10.0 miles SSW 12.7 mph 19.6 mph N/A   Overcast
1:53 PM 44.1°F 39.0°F 82% 29.47 in 10.0 miles SW 12.7 mph 17.3 mph N/A   Overcast
2:53 PM 46.0°F 34.0°F 63% 29.53 in 10.0 miles WSW 13.8 mph 19.6 mph N/A   Mostly Cloudy
3:53 PM 42.1°F 33.1°F 70% 29.60 in 10.0 miles SW 13.8 mph 23.0 mph N/A   Clear
4:53 PM 42.1°F 35.1°F 76% 29.65 in 10.0 miles South 12.7 mph - N/A   Mostly Cloudy
5:53 PM 41.0°F 33.1°F 73% 29.69 in 10.0 miles SSW 12.7 mph - N/A   Clear
6:53 PM 39.9°F 33.1°F 77% 29.71 in 10.0 miles SW 15.0 mph 23.0 mph N/A   Clear
7:53 PM 39.0°F 32.0°F 76% 29.75 in 10.0 miles SSW 11.5 mph - N/A   Mostly Cloudy
8:53 PM 39.0°F 33.1°F 79% 29.76 in 10.0 miles SW 12.7 mph - N/A   Partly Cloudy
9:53 PM 39.0°F 33.1°F 79% 29.80 in 10.0 miles SW 11.5 mph 21.9 mph N/A   Mostly Cloudy
10:53 PM 39.0°F 33.1°F 79% 29.82 in 10.0 miles SW 11.5 mph - N/A   Overcast
11:53 PM 39.0°F 33.1°F 79% 29.85 in 10.0 miles SSW 15.0 mph 20.7 mph N/A   Mostly Cloudy
Moon Phase
Dec. 02 Dec. 06 Dec. 13 Dec. 20 Dec. 28
Sunrise:07:20 AM (PST) Moon Rise:07:58 PM (PST)12/2
Sunset:03:58 PM (PST) Moon Set:10:05 AM (PST)12/2

Copyright © 2014 The Weather Underground, Inc.